Radiation Dose measured at exhaust stack monitor of Fukushima Daiichi Nuclear Power Station
Date,Time,Unit 5 6 shared exhaust cylinders,Wind Direction,Wind Velocity(m/s)
2021/12/11,00:00,4.1,northwest,3.4
2021/12/11,00:10,3.9,northwest,3.3
2021/12/11,00:20,3.9,northwest,3.3
2021/12/11,00:30,4.0,northwest,2.8
2021/12/11,00:40,4.1,northwest,2.0
2021/12/11,00:50,3.9,northwest,2.0
2021/12/11,01:00,3.8,west-northwest,2.0
2021/12/11,01:10,3.9,west-northwest,2.2
2021/12/11,01:20,4.0,west-northwest,2.0
2021/12/11,01:30,4.0,west-northwest,2.3
2021/12/11,01:40,4.0,west-northwest,2.5
2021/12/11,01:50,3.9,west-northwest,1.7
2021/12/11,02:00,4.0,west-northwest,2.6
2021/12/11,02:10,4.0,west-northwest,2.6
2021/12/11,02:20,4.0,west,2.5
2021/12/11,02:30,4.1,west,1.4
2021/12/11,02:40,4.0,-,CALM
2021/12/11,02:50,4.1,north-northwest,1.2
2021/12/11,03:00,4.0,west-northwest,1.9
2021/12/11,03:10,4.0,west,1.7
2021/12/11,03:20,3.9,west-southwest,1.5
2021/12/11,03:30,4.0,west-southwest,0.6
2021/12/11,03:40,3.9,-,CALM
2021/12/11,03:50,4.0,southwest,1.2
2021/12/11,04:00,4.0,west-southwest,2.0
2021/12/11,04:10,4.0,southwest,1.7
2021/12/11,04:20,3.9,southwest,1.2
2021/12/11,04:30,4.1,south,0.8
2021/12/11,04:40,4.0,south,0.8
2021/12/11,04:50,3.8,south-southwest,1.2
2021/12/11,05:00,4.1,south,1.4
2021/12/11,05:10,4.0,south-southeast,1.4
2021/12/11,05:20,3.9,south-southeast,0.9
2021/12/11,05:30,3.8,south-southeast,1.1
2021/12/11,05:40,4.0,south,2.0
2021/12/11,05:50,3.9,south-southwest,2.3
2021/12/11,06:00,3.9,south-southwest,2.0
2021/12/11,06:10,4.0,south-southwest,1.9
2021/12/11,06:20,4.0,south,1.7
2021/12/11,06:30,4.1,south,2.5
2021/12/11,06:40,4.0,south-southeast,1.9
2021/12/11,06:50,3.9,south,1.9
2021/12/11,07:00,4.0,south,1.7
2021/12/11,07:10,3.8,south-southeast,1.7
2021/12/11,07:20,3.9,south-southwest,1.4
2021/12/11,07:30,4.1,southwest,1.1
2021/12/11,07:40,3.9,south-southeast,1.4
2021/12/11,07:50,4.0,south,1.2
2021/12/11,08:00,3.9,south,0.8
2021/12/11,08:10,4.0,south-southeast,1.4
2021/12/11,08:20,4.0,south-southeast,2.0
2021/12/11,08:30,4.0,south-southeast,1.9
2021/12/11,08:40,3.9,south-southeast,2.0
2021/12/11,08:50,3.8,south-southeast,1.9
2021/12/11,09:00,4.0,south,1.1
2021/12/11,09:10,4.2,south-southeast,1.2
2021/12/11,09:20,3.9,south-southeast,1.5
2021/12/11,09:30,4.2,south,1.4
2021/12/11,09:40,3.6,south-southwest,1.5
2021/12/11,09:50,4.0,south-southwest,1.2
2021/12/11,10:00,3.8,southwest,1.5
2021/12/11,10:10,3.9,south-southeast,2.5
2021/12/11,10:20,3.9,southeast,2.3
2021/12/11,10:30,4.1,southeast,2.8
2021/12/11,10:40,3.9,southeast,2.9
2021/12/11,10:50,4.0,south-southeast,1.5
2021/12/11,11:00,4.0,south-southeast,2.6
2021/12/11,11:10,4.0,southeast,1.7
2021/12/11,11:20,3.9,southeast,2.3
2021/12/11,11:30,3.9,east-southeast,1.7
2021/12/11,11:40,3.9,east-southeast,1.9
2021/12/11,11:50,4.1,east-southeast,2.9
2021/12/11,12:00,4.1,southeast,2.9
2021/12/11,12:10,4.1,east-southeast,3.0
2021/12/11,12:20,3.9,southeast,3.0
2021/12/11,12:30,3.9,southeast,2.9
2021/12/11,12:40,3.8,southeast,3.9
2021/12/11,12:50,4.1,southeast,3.3
2021/12/11,13:00,3.9,southeast,2.8
2021/12/11,13:10,3.7,southeast,3.2
2021/12/11,13:20,3.9,southeast,3.4
2021/12/11,13:30,3.8,south-southeast,3.7
2021/12/11,13:40,4.0,south-southeast,3.5
2021/12/11,13:50,4.0,south-southeast,3.0
2021/12/11,14:00,4.0,southeast,3.2
2021/12/11,14:10,4.0,southeast,2.0
2021/12/11,14:20,4.1,southeast,3.1
2021/12/11,14:30,4.1,south-southeast,3.1
2021/12/11,14:40,4.1,south-southeast,3.7
2021/12/11,14:50,3.8,southeast,2.5
2021/12/11,15:00,3.8,south-southeast,2.6
2021/12/11,15:10,3.8,south-southeast,2.3
2021/12/11,15:20,4.0,southeast,0.6
2021/12/11,15:30,3.9,south,2.6
2021/12/11,15:40,4.0,south,3.7
2021/12/11,15:50,3.9,south,3.8
2021/12/11,16:00,4.0,south,3.2
2021/12/11,16:10,4.1,south-southwest,2.6
2021/12/11,16:20,3.8,west-southwest,1.5
2021/12/11,16:30,4.0,west,2.3
2021/12/11,16:40,4.0,west,5.1
2021/12/11,16:50,3.8,west-northwest,7.5
2021/12/11,17:00,3.9,west,6.2
2021/12/11,17:10,3.7,west,6.2
2021/12/11,17:20,3.9,west,5.6
2021/12/11,17:30,3.9,west,7.3
2021/12/11,17:40,4.0,west,7.4
2021/12/11,17:50,3.9,west,7.5
2021/12/11,18:00,4.0,west,7.3
2021/12/11,18:10,4.0,west,7.6
2021/12/11,18:20,3.9,west,7.2
2021/12/11,18:30,3.9,west,6.9
2021/12/11,18:40,4.1,west,6.7
2021/12/11,18:50,4.0,west,6.4
2021/12/11,19:00,3.9,west,6.4
2021/12/11,19:10,3.8,west,4.0
2021/12/11,19:20,4.0,west-northwest,3.6
2021/12/11,19:30,4.0,west-northwest,4.4
2021/12/11,19:40,4.0,west-northwest,4.3
2021/12/11,19:50,4.0,west-northwest,3.9
2021/12/11,20:00,4.0,northwest,3.3
2021/12/11,20:10,4.0,northwest,3.9
2021/12/11,20:20,3.9,northwest,2.0
2021/12/11,20:30,3.9,northwest,2.0
2021/12/11,20:40,4.1,northwest,2.9
2021/12/11,20:50,3.8,northwest,2.0
2021/12/11,21:00,4.0,west-northwest,1.9
2021/12/11,21:10,4.2,west-southwest,0.9
2021/12/11,21:20,3.8,west-southwest,0.8
2021/12/11,21:30,3.9,west-southwest,0.9
2021/12/11,21:40,4.0,west-northwest,2.3
2021/12/11,21:50,3.9,west-northwest,2.2
2021/12/11,22:00,3.8,northwest,1.7
2021/12/11,22:10,3.9,west-northwest,1.5
2021/12/11,22:20,3.9,west,0.9
2021/12/11,22:30,4.0,west-northwest,2.3
2021/12/11,22:40,4.0,west-northwest,4.5
2021/12/11,22:50,3.9,west-northwest,5.1
2021/12/11,23:00,3.8,west-northwest,5.1
2021/12/11,23:10,3.9,west-northwest,4.6
2021/12/11,23:20,3.9,west-northwest,3.6
2021/12/11,23:30,3.9,west-northwest,2.3
2021/12/11,23:40,3.9,west,1.5
2021/12/11,23:50,4.0,west,1.7
